Back to catalog

COSMOS 2054 DEB

AliveGEO
NORAD 21648·DEBRIS·🇷🇺 Russia

Launched Dec 27, 1989 from Baikonur Cosmodrome

Loading…

TLE

FreshSource: Space-Track

Epoch: Sep 14, 2026, 12:50 UTC

1 21648U 89101G   26257.53493071 -.00000205  00000-0  00000-0 0  9992
2 21648  13.3327 337.2982 0026715 316.1724  49.5909  0.97852125116644

Track COSMOS 2054 DEB in real time with AllMySat

Download on the App Store